Location: Biharia
(46.4333°N, 22.8000°E)
Time: 03:55:42
(UTC+00:00)

Cosmos 494 Rocket - Pass Details

Date: 25 May 2022
Orbit: 742 x 770 km, 74.1° (Epoch: 05 July)

Event Time Altitude Azimuth Distance (km) Brightness Sun altitude
Rises 00:09:57 0° 327° (NNW) 3,192 7.6 -18.6°
Reaches altitude 10° 00:12:41 10° 314° (NW) 2,262 6.6 -18.4°
Maximum altitude 00:16:43 24° 261° (W) 1,505 5.2 -18.1°
Enters shadow 00:17:20 24° 250° (WSW) 1,526 5.1 -18.1°
